Location: Oshawa
(43.9000°N, 78.8670°W)
Time: 18:18:13
(UTC-05:00)

Cosmos 1805 Rocket - Visible Passes

Search period start: 24 January 2017 00:00
Search period end: 03 February 2017 00:00
Orbit: 607 x 629 km, 82.5° (Epoch: 23 January)

Date Brightness Start Highest point End Pass type
(mag) Time Alt. Az. Time Alt. Az. Time Alt. Az.
24 Jan 6.5 04:11:11 12° NE 04:12:17 13° ENE 04:14:18 10° E visible
24 Jan 3.4 05:48:24 28° NNW 05:50:37 63° W 05:54:55 10° S visible
24 Jan 3.5 18:18:22 10° S 18:22:49 76° E 18:27:17 10° NNE visible
24 Jan 6.7 19:59:48 10° W 20:01:15 11° WNW 20:02:41 10° NW visible
25 Jan 5.8 04:29:29 22° ENE 04:29:40 22° ENE 04:33:06 10° ESE visible
25 Jan 4.1 06:06:43 31° WNW 06:07:36 34° W 06:11:32 10° SSW visible
25 Jan 4.2 18:35:32 10° SSW 18:39:55 59° W 18:44:21 10° N visible
26 Jan 5.1 04:47:52 34° ESE 04:47:52 34° ESE 04:51:01 10° SE visible
26 Jan 4.9 06:25:06 19° W 06:25:06 19° W 06:27:34 10° SW visible
26 Jan 5.4 18:53:07 10° SW 18:57:08 32° WNW 19:01:11 10° N visible
27 Jan 5.0 05:06:19 29° SSE 05:06:19 29° SSE 05:08:28 10° SSE visible
27 Jan 6.3 19:11:15 10° WSW 19:14:27 19° WNW 19:17:39 10° NNW visible
28 Jan 5.7 05:24:46 15° S 05:24:46 15° S 05:25:29 10° S visible
28 Jan 3.6 17:48:58 10° S 17:53:25 78° E 17:57:54 10° N visible
28 Jan 6.8 19:30:38 10° W 19:31:52 11° WNW 19:33:06 10° NW visible
29 Jan 4.3 18:06:09 10° SSW 18:10:32 57° W 18:14:57 10° N visible
30 Jan 5.5 18:23:46 10° SW 18:27:45 31° WNW 18:31:45 10° N visible
31 Jan 6.4 18:41:56 10° WSW 18:45:04 18° WNW 18:48:12 10° NNW visible
01 Feb 6.8 19:01:31 10° WNW 19:02:29 11° WNW 19:03:28 10° NW visible
